Volver al catálogo

STARLINK-34849

ActivoComunicacionesVLEO
NORAD 66005·PAYLOAD·🇺🇸 United States

Lanzado Oct 16, 2025 desde Cape Canaveral Space Force Station

Loading…

Próximos Pases (próximas 24 horas)

TLE

ActualizadoSource: CelesTrak SupGP

Época: Sep 14, 2026, 22:46 UTC

1 66005C 25232A   26257.94909722  .00046852  00000+0  13846-2 0  2570
2 66005  53.1580 301.3126 0001122  88.3365 196.9959 15.34360025    14

Sigue STARLINK-34849 en tiempo real con AllMySat

Download on the App Store